Location: Centerville
(32.8776°N, 96.6203°W)
Time: 01:01:14
(UTC+00:00)

Cosmos 1656 Rocket - Pass Details

Date: 17 June 2021
Orbit: 794 x 847 km, 71.1° (Epoch: 27 July)

Event Time Altitude Azimuth Distance (km) Brightness Sun altitude
Rises 08:10:50 0° 344° (NNW) 3,413 7.5 -28.6°
Reaches altitude 10° 08:13:21 10° 349° (N) 2,474 6.7 -28.3°
Maximum altitude 08:18:56 56° 67° (ENE) 999 4.2 -27.8°
Enters shadow 08:20:49 38° 123° (ESE) 1,256 4.5 -27.6°
